Leonardo Aguirre

Scout - Gimnasia y Tiro
20 Feb 2028
Sunday
Process

Personality

Adaptability (3) Ambition (1) Controversy (10) Loyalty (8) Pressure (11) Professionalism (19) Sportsmanship (13) Temperament (14)

Profile

Coaching Style Democratic
License Continental Pro
Determination 2
Man Management 1
Motivating 7
Discipline 4
Job Satisfaction
41%
Fatigue
0%
Role Scout
Wage 8.4K p/w
Contract 14.03.2030

Performance

Behaviour Good
Training Effectiveness
10%
Player Development
35%
Injury Prevention
35%
Tactical Implementation
35%

Recent Events

Attended a recruitment meeting 14d ago
Attended a recruitment meeting 21d ago
Attending professional development 28d ago
Attended a recruitment meeting 28d ago
Attending professional development 28d ago
Attending professional development 28d ago
Attending professional development 28d ago
Attending professional development 35d ago

Currently Monitoring

131
Player Club Status Ability Confidence Watched Last Observed Latest Vote
Santiago Rodríguez Gimnasia y Esgrima Active 122 / 126 40% 2 29.11.2026 -
Facundo Melillán Güemes Active 110 / 111 40% 1 27.11.2026 -
Nicolás Fernández Maipú Active 101 / 96 40% 1 27.11.2026 -
Juan Alfredo Arrieta Trujillanos Active 82 / 102 40% 2 26.11.2026 -
Joaquín Enrico San Telmo Active 112 / 88 40% 2 25.11.2026 -
Nahuel Galardi Maipú Active 101 / 108 40% 1 21.11.2026 -
Lautaro Petruchi Gimnasia y Esgrima Active 120 / 102 40% 1 20.11.2026 -
Mauro Valiente Estudiantes Active 130 / 96 40% 1 20.11.2026 -
Jeremy Ebobisse Los Angeles Football Club Active 123 / 96 40% 1 19.11.2026 -
Carlos Faya Deportivo La Guaira Active 93 / 108 40% 1 17.11.2026 -
Agustín Pérez Deportivo Tachira Active 94 / 115 40% 1 16.11.2026 -
Ulises Yegros Ferro Carril Oeste Active 112 / 110 40% 1 16.11.2026 -
Gino Barbieri Almagro Active 127 / 125 40% 2 15.11.2026 -
Francisco Salerno Defensores Unidos Active 121 / 105 40% 2 15.11.2026 -
Marber Suárez Zulia Active 86 / 102 40% 1 14.11.2026 -
Nəriman Axundzadə Columbus Crew Active 105 / 131 40% 1 14.11.2026 -
Valentín Serrano Arsenal Active 105 / 122 40% 1 13.11.2026 -
Fernando Miranda Colegiales Active 123 / 106 40% 1 13.11.2026 -
Gaspar Duarte Rosario Central Active 104 / 120 40% 1 12.11.2026 -
Diego Capdevila Cerro Active 104 / 79 40% 2 11.11.2026 -
Miguel Acosta Argentinos Juniors Active 94 / 99 40% 1 11.11.2026 -
Siro Rosané Estudiantes Active 127 / 134 40% 1 09.11.2026 -
Ignacio Rodríguez Racing Club Active 122 / 127 40% 1 09.11.2026 -
Yvo Calleros Madryn Active 128 / 107 40% 1 08.11.2026 -
Germán Guiffrey Gimnasia y Esgrima Active 127 / 103 40% 1 06.11.2026 -
Matías Pérez Racing Club Active 121 / 135 40% 1 04.11.2026 -
Mauricio Márquez Caracas Active 96 / 96 40% 1 04.11.2026 -
Matías Machado Racing Active 112 / 127 40% 1 03.11.2026 -
Darwin Machis Atletico Venezuela Active 66 / 71 40% 1 03.11.2026 -
Moisés Gallo Zulia Active 105 / 88 40% 1 02.11.2026 -
Javier Bravo Mineros de Guayana Active 73 / 86 40% 2 01.11.2026 -
Rafael Sánchez Aragua Active 91 / 95 40% 1 01.11.2026 -
Walter Juárez Güemes Active 116 / 127 40% 1 01.11.2026 -
Victor Moreno Llaneros Active 86 / 116 40% 1 01.11.2026 -
Piero Magallanes Sport Huancayo Active 111 / 82 40% 1 31.10.2026 -
Santiago Sala Güemes Active 110 / 116 40% 1 31.10.2026 -
Esteban Glellel Quilmes Active 107 / 114 40% 4 29.10.2026 -
Jeferson Nolasco Cesar Vallejo Active 104 / 108 40% 1 25.10.2026 -
Gali Balanta Deportes Tolima Active 105 / 99 40% 2 24.10.2026 -
Enzo Vázquez Central Norte Active 105 / 120 40% 2 24.10.2026 -
Francisco Borda Central Norte Active 107 / 85 40% 1 21.10.2026 -
Luis Iberico Sporting Cristal Active 105 / 113 40% 1 20.10.2026 -
Ronny Maza Aragua Active 108 / 87 40% 2 19.10.2026 -
Ezequiel Almirón Estudiantes Active 115 / 122 40% 1 18.10.2026 -
Juan Romero Olimpia Active 113 / 118 40% 3 17.10.2026 -
Darío Rostagno Estudiantes Active 123 / 123 40% 1 17.10.2026 -
Lautaro Amadé Defensa y Justicia Active 127 / 107 40% 1 16.10.2026 -
Gianfranco Chávez Alianza Lima Active 110 / 122 40% 1 15.10.2026 -
Jonatan Torres Cerro Porteno Active 127 / 112 40% 2 14.10.2026 -
Nahuel Pezzini Arsenal Active 113 / 97 40% 1 12.10.2026 -
Maximiliano Ribero Central Norte Active 130 / 110 40% 1 11.10.2026 -
Juan Mendoza Güemes Active 118 / 85 40% 1 10.10.2026 -
Marco Miori Alvarado Active 112 / 95 40% 1 10.10.2026 -
Paolo Reyna Universitario Active 117 / 107 40% 1 08.10.2026 -
Gustavo Dionisi Guarani Active 92 / 105 40% 1 05.10.2026 -
Francisco Maidana Gimnasia y Esgrima Active 116 / 103 40% 1 03.10.2026 -
Gabriel Otero Llaneros Active 117 / 95 40% 1 03.10.2026 -
Gino Santilli Banfield Active 96 / 98 40% 1 02.10.2026 -
Nicolás Heiz Maipú Active 120 / 117 40% 1 01.10.2026 -
Steven Pabón Trujillanos Active 113 / 107 40% 1 28.09.2026 -
Santiago Kubiszyn Morón Active 112 / 114 40% 1 28.09.2026 -
Tomás Porra Barracas Central Active 125 / 101 40% 2 27.09.2026 -
Mauricio Guzmán Tristán Suárez Active 114 / 107 40% 1 27.09.2026 -
Brayan Moreno Universidad de Chile Active 116 / 104 40% 2 25.09.2026 -
Jorge Murrugarra Universitario Active 121 / 111 40% 1 25.09.2026 -
Édier Ocampo Vancouver Whitecaps Active 121 / 96 40% 1 25.09.2026 -
Matías Samaniego Talleres Active 90 / 117 40% 1 25.09.2026 -
Junior Paredes Trujillanos Active 86 / 90 40% 1 24.09.2026 -
Sebastián Cocimano Nueva Chicago Active 117 / 116 40% 1 24.09.2026 -
Jeremías James Columbus Crew Active 128 / 125 40% 1 22.09.2026 -
Agustín Dattola Almirante Brown Active 121 / 109 40% 1 22.09.2026 -
David Agudelo Depor Active 99 / 106 40% 1 21.09.2026 -
Rômulo Tigres Active 103 / 129 40% 2 19.09.2026 -
Luis Olivera Defensores Unidos Active 113 / 121 40% 1 17.09.2026 -
Santiago Cartagena Deportivo Maldonado Active 118 / 113 40% 1 17.09.2026 -
Hugo Ancajima Universitario Active 126 / 98 40% 2 16.09.2026 -
Álex Vázquez Racing Active 100 / 116 40% 1 16.09.2026 -
Diego Castillo Real Cartagena Active 113 / 112 40% 1 15.09.2026 -
Pablo Fernández Sol de America Active 87 / 90 40% 1 15.09.2026 -
Maicol Ferreira Danubio Active 102 / 120 40% 1 14.09.2026 -
Jhonier Blanco Fortaleza CEIF Active 107 / 108 40% 1 14.09.2026 -
Miguel Silva Carabobo Active 104 / 92 40% 1 13.09.2026 -
Lucas Pedraza Defensores Unidos Active 90 / 91 40% 1 12.09.2026 -
Diego Valencia Universidad Catolica Active 101 / 112 40% 1 11.09.2026 -
Alejandro Samudio Nacional Active 96 / 91 40% 1 11.09.2026 -
Andrés Gudiño Cruz Azul Active 121 / 95 40% 1 08.09.2026 -
Cristian Baldovino Atletico Bucaramanga Active 84 / 93 40% 1 08.09.2026 -
Roameth Romaña Llaneros Active 92 / 114 40% 2 07.09.2026 -
Emiliano Ancheta Nacional Active 122 / 132 40% 1 07.09.2026 -
Stiven Vega Millonarios Active 110 / 129 40% 1 07.09.2026 -
Luis Corredor Estudiantes de Caracas Active 87 / 108 40% 1 06.09.2026 -
Anthony Vilche Colon Active 92 / 76 40% 1 04.09.2026 -
Éwil Murillo Santa Fe Active 130 / 104 40% 1 02.09.2026 -
George Ayine Metropolitanos Active 100 / 96 40% 1 02.09.2026 -
Hugo Gaona Sportivo Luqueno Active 73 / 81 40% 1 02.09.2026 -
Santiago Godoy 12 de Octubre Active 93 / 95 40% 1 01.09.2026 -
Gustavo Rodriguez Valledupar Active 114 / 105 40% 1 30.08.2026 -
Gaizka Gómez Wanderers Active 79 / 90 40% 1 29.08.2026 -
Jonathan Vega Dorados Active 86 / 117 40% 1 29.08.2026 -
Diego Rossi Monterrey Active 118 / 113 40% 2 28.08.2026 -
Duván Mósquera Aguilas Doradas Active 109 / 117 40% 1 27.08.2026 -
Santiago Fernández Talleres Active 101 / 110 40% 1 27.08.2026 -
Dalessandro Montenegro Alianza Lima Active 113 / 99 40% 1 25.08.2026 -
Rodrigo Cabrera River Plate Active 104 / 107 40% 1 25.08.2026 -
Róyner Benítez Aguilas Doradas Active 95 / 106 40% 1 25.08.2026 -
Dylan Lozano Aguilas Doradas Active 100 / 111 40% 1 24.08.2026 -
Santiago Costa Albion Active 95 / 112 40% 1 24.08.2026 -
Fabián Ángel Junior Active 121 / 114 40% 1 23.08.2026 -
Hebert Vergara Liverpool Montevideo Active 96 / 101 40% 1 22.08.2026 -
Kavier Ortiz Metropolitanos Active 83 / 97 40% 1 18.08.2026 -
Santiago Guzmán Wanderers Active 98 / 97 40% 1 18.08.2026 -
Lukas González Cerro Largo Active 100 / 80 40% 1 18.08.2026 -
Jairo Amaro Cerro Active 110 / 102 40% 1 16.08.2026 -
Tiago Simoni Cerrito Active 108 / 98 40% 1 16.08.2026 -
Emiliano Mozzone Deportivo Maldonado Active 94 / 107 40% 1 15.08.2026 -
Álex Perdomo Defensor Sporting Active 105 / 109 40% 1 15.08.2026 -
Eduardo Fereira Caracas Active 107 / 110 40% 1 14.08.2026 -
Lucas Arzamendia Atenas Active 91 / 111 40% 1 14.08.2026 -
Mathías Bordón Sol de America Active 89 / 77 40% 1 12.08.2026 -
Fernando Álvarez Deportivo Cali Active 105 / 100 40% 1 09.08.2026 -
Juan Camilo Mosquera Atletico Bucaramanga Active 119 / 122 40% 1 09.08.2026 -
Yesid Díaz Fortaleza CEIF Active 107 / 119 40% 1 08.08.2026 -
Eduardo Zapata Envigado Active 103 / 89 40% 1 07.08.2026 -
Juan Camilo Loaiza Llaneros Active 102 / 116 40% 1 05.08.2026 -
Nahuel Gómez Oriental Active 93 / 98 40% 1 05.08.2026 -
Fernando Tapia Club America Active 129 / 138 40% 1 03.08.2026 -
Francisco Galván Deportivo Municipal Active 115 / 106 40% 1 02.08.2026 -
Álvaro Angulo Pumas UNAM Active 120 / 126 40% 1 01.08.2026 -
Yeferson Moreno Barranquilla Active 92 / 115 40% 1 01.08.2026 -
Facundo Batista Penarol Active 133 / 132 40% 1 01.08.2026 -
Lucas Acosta Liverpool Montevideo Active 122 / 106 40% 1 01.08.2026 -